| time (UTC) | temp F | wind direction | speed MPH | gust MPH | rain 1hr in | rain 24hr in | rain mn in | humidity % | barometer mb |
| 20260506011553 | 49 | 63 | 0.0 | 2.0 | 0.02 | 0.12 | 0.12 | 90 | 1008.9 |
| 20260506010054 | 49 | 46 | 0.0 | 2.0 | 0.02 | 0.11 | 0.11 | 90 | 1008.6 |
| 20260506004549 | 49 | 0 | 0.0 | 2.0 | 0.02 | 0.11 | 0.11 | 90 | 1008.2 |
| 20260506003057 | 49 | 0 | 0.0 | 1.0 | 0.03 | 0.11 | 0.11 | 89 | 1008.3 |
| 20260506001604 | 49 | 0 | 0.0 | 1.0 | 0.04 | 0.10 | 0.10 | 89 | 1008.1 |
| 20260506000046 | 50 | 0 | 0.0 | 2.0 | 0.04 | 0.09 | 0.09 | 88 | 1008.2 |
| 20260505234609 | 50 | 46 | 0.0 | 2.0 | 0.07 | 0.09 | 0.09 | 87 | 1008.2 |
| 20260505233051 | 50 | 0 | 0.0 | 2.0 | 0.08 | 0.08 | 0.08 | 87 | 1008.2 |
| 20260505231553 | 51 | 1 | 0.0 | 2.0 | 0.06 | 0.06 | 0.06 | 86 | 1008.3 |
| 20260505230051 | 51 | 314 | 1.0 | 2.0 | 0.05 | 0.05 | 0.05 | 82 | 1007.8 |
| 20260505224551 | 53 | 269 | 1.0 | 7.0 | 0.02 | 0.02 | 0.02 | 77 | 1008.0 |
| 20260505223103 | 55 | 318 | 2.0 | 5.0 | 0.00 | 0.00 | 0.00 | 69 | 1007.6 |
| 20260505221553 | 56 | 327 | 5.0 | 12.0 | 0.00 | 0.00 | 0.00 | 66 | 1007.5 |
| 20260505220051 | 61 | 351 | 4.0 | 10.0 | 0.00 | 0.00 | 0.00 | 61 | 1006.5 |
| 20260505214558 | 64 | 324 | 4.0 | 19.0 | 0.00 | 0.00 | 0.00 | 64 | 1005.8 |
| 20260505213054 | 66 | 220 | 5.0 | 22.0 | 0.00 | 0.00 | 0.00 | 62 | 1005.4 |
| 20260505211601 | 66 | 269 | 5.0 | 19.0 | 0.00 | 0.00 | 0.00 | 61 | 1004.9 |
| 20260505210051 | 68 | 164 | 6.0 | 21.0 | 0.00 | 0.00 | 0.00 | 58 | 1004.9 |
| 20260505204549 | 68 | 241 | 5.0 | 21.0 | 0.00 | 0.00 | 0.00 | 58 | 1004.8 |
| 20260505203114 | 68 | 212 | 3.0 | 9.0 | 0.00 | 0.00 | 0.00 | 59 | 1004.6 |
| 20260505201552 | 68 | 245 | 3.0 | 14.0 | 0.00 | 0.00 | 0.00 | 59 | 1004.3 |
| 20260505200048 | 68 | 264 | 7.0 | 16.0 | 0.00 | 0.00 | 0.00 | 60 | 1004.5 |
| 20260505194552 | 68 | 223 | 6.0 | 16.0 | 0.00 | 0.00 | 0.00 | 59 | 1004.5 |
| 20260505193047 | 68 | 248 | 8.0 | 17.0 | 0.00 | 0.00 | 0.00 | 59 | 1004.2 |
| 20260505193004 | 68 | 240 | 8.0 | 17.0 | 0.00 | 0.00 | 0.00 | 60 | 1002.7 |
| 20260505191555 | 68 | 243 | 2.0 | 15.0 | 0.00 | 0.00 | 0.00 | 59 | 1004.4 |
| 20260505190053 | 69 | 349 | 4.0 | 14.0 | 0.00 | 0.00 | 0.00 | 58 | 1004.2 |
| 20260505184555 | 71 | 290 | 3.0 | 12.0 | 0.00 | 0.00 | 0.00 | 53 | 1003.8 |
| 20260505183048 | 72 | 215 | 8.0 | 18.0 | 0.00 | 0.00 | 0.00 | 52 | 1003.5 |
| 20260505181548 | 72 | 231 | 6.0 | 20.0 | 0.00 | 0.00 | 0.00 | 52 | 1003.5 |
| 20260505180058 | 71 | 221 | 6.0 | 17.0 | 0.00 | 0.00 | 0.00 | 53 | 1003.7 |
| 20260505174556 | 72 | 246 | 8.0 | 19.0 | 0.00 | 0.00 | 0.00 | 52 | 1003.6 |
| 20260505173053 | 71 | 252 | 6.0 | 19.0 | 0.00 | 0.00 | 0.00 | 54 | 1003.3 |
| 20260505171550 | 69 | 243 | 6.0 | 14.0 | 0.00 | 0.00 | 0.00 | 56 | 1003.1 |
| 20260505170048 | 67 | 220 | 6.0 | 14.0 | 0.00 | 0.00 | 0.00 | 59 | 1003.6 |
| 20260505164551 | 69 | 223 | 4.0 | 14.0 | 0.00 | 0.00 | 0.00 | 56 | 1003.5 |
| 20260505163051 | 70 | 257 | 4.0 | 12.0 | 0.00 | 0.00 | 0.00 | 54 | 1003.3 |
| 20260505161551 | 71 | 303 | 3.0 | 9.0 | 0.00 | 0.00 | 0.00 | 53 | 1002.9 |
| 20260505153051 | 73 | 248 | 5.0 | 16.0 | 0.00 | 0.00 | 0.00 | 52 | 1001.9 |
| 20260505151549 | 73 | 238 | 8.0 | 15.0 | 0.00 | 0.00 | 0.00 | 50 | 1002.0 |
| 20260505124551 | 70 | 255 | 6.0 | 16.0 | 0.00 | 0.00 | 0.00 | 55 | 1001.5 |
| 20260505123053 | 70 | 243 | 5.0 | 15.0 | 0.00 | 0.00 | 0.00 | 56 | 1001.4 |
| 20260505123003 | 70 | 196 | 6.0 | 15.0 | 0.00 | 0.00 | 0.00 | 57 | 999.9 |
| 20260505121548 | 69 | 215 | 5.0 | 13.0 | 0.00 | 0.00 | 0.00 | 57 | 1001.3 |
| 20260505114557 | 67 | 209 | 5.0 | 15.0 | 0.00 | 0.00 | 0.00 | 59 | 1001.5 |
| 20260505113100 | 67 | 259 | 5.0 | 14.0 | 0.00 | 0.00 | 0.00 | 60 | 1001.3 |
| 20260505111551 | 67 | 252 | 6.0 | 11.0 | 0.00 | 0.00 | 0.00 | 60 | 1001.1 |
| 20260505102004 | 65 | 186 | 4.0 | 13.0 | 0.00 | 0.00 | 0.00 | 64 | 999.3 |
| 20260505101554 | 65 | 218 | 3.0 | 9.0 | 0.00 | 0.00 | 0.00 | 64 | 1000.8 |
| 20260505100046 | 64 | 187 | 4.0 | 11.0 | 0.00 | 0.00 | 0.00 | 65 | 1000.6 |
| 20260505100003 | 65 | 207 | 4.0 | 9.0 | 0.00 | 0.00 | 0.00 | 66 | 999.1 |
| 20260505095004 | 64 | 198 | 3.0 | 12.0 | 0.00 | 0.00 | 0.00 | 66 | 999.0 |
| 20260505094547 | 64 | 219 | 3.0 | 11.0 | 0.00 | 0.00 | 0.00 | 66 | 1000.5 |
| 20260505093051 | 63 | 228 | 3.0 | 9.0 | 0.00 | 0.00 | 0.00 | 68 | 1000.5 |
| 20260505093003 | 64 | 212 | 4.0 | 9.0 | 0.00 | 0.00 | 0.00 | 69 | 999.0 |
| 20260505091550 | 62 | 222 | 3.0 | 6.0 | 0.00 | 0.00 | 0.00 | 72 | 1000.7 |
| 20260505090056 | 61 | 178 | 2.0 | 6.0 | 0.00 | 0.00 | 0.00 | 74 | 1001.0 |
| 20260505084547 | 61 | 190 | 2.0 | 6.0 | 0.00 | 0.00 | 0.00 | 74 | 1001.3 |
| 20260505083101 | 60 | 178 | 1.0 | 4.0 | 0.00 | 0.00 | 0.00 | 78 | 1001.1 |
| 20260505081551 | 60 | 161 | 1.0 | 2.0 | 0.00 | 0.00 | 0.00 | 78 | 1001.3 |
| 20260505080047 | 62 | 0 | 0.0 | 1.0 | 0.00 | 0.00 | 0.00 | 75 | 1001.5 |
| 20260505074548 | 62 | 0 | 0.0 | 2.0 | 0.00 | 0.00 | 0.00 | 73 | 1001.6 |
| 20260505073150 | 63 | 234 | 1.0 | 3.0 | 0.00 | 0.00 | 0.00 | 70 | 1001.5 |
| 20260505073003 | 64 | 213 | 2.0 | 3.0 | 0.00 | 0.00 | 0.00 | 71 | 1000.1 |
| 20260505072504 | 64 | 200 | 2.0 | 3.0 | 0.00 | 0.00 | 0.00 | 71 | 1000.1 |
| 20260505072003 | 64 | 217 | 3.0 | 8.0 | 0.00 | 0.00 | 0.00 | 71 | 1000.1 |
| 20260505071549 | 63 | 222 | 3.0 | 10.0 | 0.00 | 0.00 | 0.00 | 71 | 1001.5 |
| 20260505071504 | 64 | 222 | 3.0 | 7.0 | 0.00 | 0.00 | 0.00 | 71 | 1000.2 |
| 20260505071003 | 64 | 189 | 3.0 | 10.0 | 0.00 | 0.00 | 0.00 | 71 | 1000.2 |
| 20260505070504 | 64 | 223 | 6.0 | 10.0 | 0.00 | 0.00 | 0.00 | 69 | 1000.5 |
| 20260505070003 | 65 | 217 | 5.0 | 13.0 | 0.00 | 0.00 | 0.00 | 68 | 1000.6 |
| 20260505065504 | 65 | 199 | 7.0 | 14.0 | 0.00 | 0.00 | 0.00 | 66 | 1000.6 |
| 20260505065004 | 65 | 213 | 6.0 | 12.0 | 0.00 | 0.00 | 0.00 | 65 | 1000.7 |
| 20260505064555 | 65 | 206 | 5.0 | 12.0 | 0.00 | 0.00 | 0.00 | 63 | 1002.1 |
| 20260505064503 | 65 | 223 | 6.0 | 12.0 | 0.00 | 0.00 | 0.00 | 63 | 1000.5 |
| 20260505064004 | 65 | 213 | 4.0 | 7.0 | 0.00 | 0.00 | 0.00 | 63 | 1000.5 |
| 20260505063503 | 65 | 199 | 3.0 | 6.0 | 0.00 | 0.00 | 0.00 | 64 | 1000.5 |
| 20260505063048 | 64 | 223 | 2.0 | 8.0 | 0.00 | 0.00 | 0.00 | 63 | 1001.7 |
| 20260505063004 | 65 | 233 | 2.0 | 8.0 | 0.00 | 0.00 | 0.00 | 63 | 1000.4 |
| 20260505062503 | 65 | 175 | 4.0 | 8.0 | 0.00 | 0.00 | 0.00 | 64 | 1000.3 |
| 20260505062003 | 65 | 214 | 3.0 | 8.0 | 0.00 | 0.00 | 0.00 | 64 | 1000.3 |
| 20260505061610 | 64 | 201 | 3.0 | 9.0 | 0.00 | 0.00 | 0.00 | 63 | 1001.7 |
| 20260505061004 | 65 | 208 | 3.0 | 6.0 | 0.00 | 0.00 | 0.00 | 63 | 1000.4 |
| 20260505060056 | 65 | 192 | 3.0 | 8.0 | 0.00 | 0.00 | 0.00 | 62 | 1001.7 |
| 20260505060003 | 65 | 214 | 3.0 | 8.0 | 0.00 | 0.00 | 0.00 | 62 | 1000.4 |
| 20260505055503 | 65 | 201 | 5.0 | 7.0 | 0.00 | 0.00 | 0.00 | 62 | 1000.3 |
| 20260505055004 | 65 | 183 | 3.0 | 7.0 | 0.00 | 0.00 | 0.00 | 62 | 1000.3 |
| 20260505054554 | 65 | 186 | 4.0 | 8.0 | 0.00 | 0.00 | 0.00 | 61 | 1001.7 |
| 20260505054504 | 65 | 201 | 4.0 | 8.0 | 0.00 | 0.00 | 0.00 | 61 | 1000.3 |
| 20260505054003 | 66 | 198 | 5.0 | 8.0 | 0.00 | 0.00 | 0.00 | 61 | 1000.3 |
| 20260505053504 | 66 | 194 | 3.0 | 8.0 | 0.00 | 0.00 | 0.00 | 61 | 1000.4 |
| 20260505053052 | 65 | 210 | 3.0 | 9.0 | 0.00 | 0.00 | 0.00 | 60 | 1001.8 |
| 20260505053004 | 66 | 185 | 3.0 | 8.0 | 0.00 | 0.00 | 0.00 | 61 | 1000.4 |
| 20260505052503 | 66 | 206 | 3.0 | 9.0 | 0.00 | 0.00 | 0.00 | 60 | 1000.4 |
| 20260505051550 | 66 | 212 | 5.0 | 11.0 | 0.00 | 0.00 | 0.00 | 59 | 1001.6 |
| 20260505051003 | 66 | 200 | 3.0 | 10.0 | 0.00 | 0.00 | 0.00 | 60 | 1000.3 |
| 20260505041556 | 65 | 207 | 3.0 | 7.0 | 0.00 | 0.00 | 0.00 | 55 | 1002.1 |
| 20260505041505 | 66 | 205 | 3.0 | 7.0 | 0.00 | 0.00 | 0.00 | 55 | 1000.7 |
| 20260505041003 | 66 | 185 | 3.0 | 7.0 | 0.00 | 0.00 | 0.00 | 55 | 1000.6 |
| 20260505040504 | 66 | 210 | 3.0 | 6.0 | 0.00 | 0.00 | 0.00 | 55 | 1000.6 |
| 20260505040100 | 66 | 175 | 3.0 | 10.0 | 0.00 | 0.00 | 0.00 | 54 | 1002.0 |
| 20260505040004 | 66 | 205 | 4.0 | 7.0 | 0.00 | 0.00 | 0.00 | 55 | 1000.6 |
| 20260505035503 | 66 | 188 | 4.0 | 10.0 | 0.00 | 0.00 | 0.00 | 55 | 1000.8 |
| 20260505034547 | 66 | 193 | 3.0 | 12.0 | 0.00 | 0.00 | 0.00 | 53 | 1002.2 |
| 20260505034504 | 66 | 199 | 4.0 | 7.0 | 0.00 | 0.00 | 0.00 | 54 | 1000.9 |
| 20260505034004 | 66 | 211 | 6.0 | 12.0 | 0.00 | 0.00 | 0.00 | 54 | 1000.9 |
| 20260505033503 | 65 | 213 | 4.0 | 8.0 | 0.00 | 0.00 | 0.00 | 55 | 1001.0 |
| 20260505033054 | 64 | 225 | 4.0 | 13.0 | 0.00 | 0.00 | 0.00 | 54 | 1002.2 |
| 20260505033004 | 64 | 208 | 5.0 | 8.0 | 0.00 | 0.00 | 0.00 | 55 | 1001.0 |
| 20260505032504 | 62 | 194 | 6.0 | 13.0 | 0.00 | 0.00 | 0.00 | 56 | 1000.9 |
| 20260505032003 | 58 | 205 | 5.0 | 12.0 | 0.00 | 0.00 | 0.00 | 62 | 1000.9 |
| 20260505031553 | 56 | 245 | 2.0 | 4.0 | 0.00 | 0.00 | 0.00 | 67 | 1002.3 |
| 20260505031004 | 57 | 211 | 1.0 | 2.0 | 0.00 | 0.00 | 0.00 | 68 | 1000.6 |
| 20260505030504 | 56 | 204 | 1.0 | 2.0 | 0.00 | 0.00 | 0.00 | 68 | 1000.6 |
| 20260505030049 | 56 | 195 | 1.0 | 2.0 | 0.00 | 0.00 | 0.00 | 68 | 1002.1 |
| 20260505030003 | 56 | 196 | 1.0 | 2.0 | 0.00 | 0.00 | 0.00 | 68 | 1000.7 |
| 20260505025504 | 56 | 131 | 1.0 | 2.0 | 0.00 | 0.00 | 0.00 | 69 | 1000.6 |
| 20260505025004 | 57 | 181 | 2.0 | 2.0 | 0.00 | 0.00 | 0.00 | 68 | 1000.7 |
| 20260505024547 | 56 | 197 | 1.0 | 2.0 | 0.00 | 0.00 | 0.00 | 68 | 1002.1 |
| 20260505024504 | 57 | 199 | 1.0 | 2.0 | 0.00 | 0.00 | 0.00 | 68 | 1000.7 |
| 20260505024004 | 57 | 181 | 1.0 | 2.0 | 0.00 | 0.00 | 0.00 | 67 | 1000.6 |
| 20260505023503 | 58 | 159 | 0.0 | 1.0 | 0.00 | 0.00 | 0.00 | 66 | 1000.6 |
| 20260505023048 | 57 | 0 | 0.0 | 1.0 | 0.00 | 0.00 | 0.00 | 65 | 1002.0 |
| 20260505023004 | 58 | 121 | 0.0 | 1.0 | 0.00 | 0.00 | 0.00 | 66 | 1000.6 |
| 20260505022503 | 58 | 122 | 0.0 | 1.0 | 0.00 | 0.00 | 0.00 | 65 | 1000.7 |
| 20260505022003 | 58 | 89 | 0.0 | 1.0 | 0.00 | 0.00 | 0.00 | 64 | 1000.8 |
| 20260505021550 | 58 | 178 | 0.0 | 1.0 | 0.00 | 0.00 | 0.00 | 63 | 1002.2 |
| 20260505021504 | 59 | 173 | 0.0 | 1.0 | 0.00 | 0.00 | 0.00 | 64 | 1000.9 |
| 20260505020503 | 59 | 129 | 0.0 | 1.0 | 0.00 | 0.00 | 0.00 | 62 | 1001.0 |
| 20260505020054 | 59 | 0 | 0.0 | 1.0 | 0.00 | 0.00 | 0.00 | 62 | 1002.4 |
| 20260505020004 | 60 | 116 | 0.0 | 1.0 | 0.00 | 0.00 | 0.00 | 62 | 1001.1 |
| 20260505015503 | 60 | 90 | 1.0 | 1.0 | 0.00 | 0.00 | 0.00 | 61 | 1001.1 |
| 20260505015004 | 60 | 120 | 0.0 | 1.0 | 0.00 | 0.00 | 0.00 | 59 | 1001.1 |
| 20260505014550 | 60 | 0 | 0.0 | 1.0 | 0.00 | 0.00 | 0.00 | 58 | 1002.5 |
| 20260505014504 | 61 | 129 | 0.0 | 0.0 | 0.00 | 0.00 | 0.00 | 59 | 1001.2 |
| 20260505014003 | 61 | 195 | 1.0 | 1.0 | 0.00 | 0.00 | 0.00 | 58 | 1001.1 |
| 20260505013503 | 62 | 189 | 0.0 | 1.0 | 0.00 | 0.00 | 0.00 | 57 | 1001.0 |
| 20260505013050 | 62 | 0 | 0.0 | 2.0 | 0.00 | 0.00 | 0.00 | 56 | 1002.4 |
| 20260505013004 | 62 | 200 | 0.0 | 1.0 | 0.00 | 0.00 | 0.00 | 56 | 1001.0 |